Station PHBP1 - 8545240 - Philadelphia, PA Image indicating link to RSS feed of recent meteorological observations for station PHBP1


Conditions at PHBP1 as of
(2:48 am EDT)
0648 GMT on 06/15/2024:
     

Click on the graph icon in the table below to see a time series plot of the last five days of that observation.

5-day plot - Atmospheric Pressure Atmospheric Pressure (PRES):29.88 in
5-day plot - Air Temperature Air Temperature (ATMP): 68.4 °F
5-day plot - Water Temperature Water Temperature (WTMP): 75.7 °F
NOS Water Level Observation Network Water Level
Previous observations
TIME
(EDT)
5-day plot - Wind Direction
WDIR
 
5-day plot - Wind Speed
WSPD
kts
5-day plot - Wind Gust
GST
kts
5-day plot - Wave Height
WVHT
ft
5-day plot - Dominant Wave Period
DPD
sec
5-day plot - Average Wave Period
APD
sec
5-day plot - Mean Wave Direction
MWD
 
5-day plot - Atmospheric Pressure
PRES
in
5-day plot - Pressure Tendency
PTDY
in
5-day plot - Air Temperature
ATMP
°F
5-day plot - Water Temperature
WTMP
°F
5-day plot - Dew Point
DEWP
°F
5-day plot - Salinity
SAL
psu
5-day plot - Visibility
VIS
nmi
5-day plot - Tide (above MLLW)
TIDE
ft
2024-06-15 02:42 am-------29.88- 68.4 75.7----
2024-06-15 02:36 am-------29.88- 68.4 75.7----
2024-06-15 02:30 am-------29.88-- 75.7----
2024-06-15 02:24 am-------29.88-- 75.7----
2024-06-15 02:18 am-------29.89-- 75.7----
2024-06-15 02:12 am-------29.89-- 75.7----
2024-06-15 02:06 am-------29.89-- 75.7----
2024-06-15 02:00 am---------- 75.7----
2024-06-15 01:54 am---------- 75.7----
2024-06-15 01:48 am-------29.90-- 75.7----
2024-06-15 01:42 am-------29.90-- 75.9----
2024-06-15 01:36 am-------29.90-- 75.7----
2024-06-15 01:30 am-------29.90- 70.0 75.7----
2024-06-15 01:24 am-------29.90- 70.2 75.9----
2024-06-15 01:18 am-------29.90- 70.3 75.7----
2024-06-15 01:12 am-------29.90- 70.5 75.7----
2024-06-15 01:06 am-------29.90- 70.9 75.7----
2024-06-15 01:00 am-------29.90+0.03 71.4 75.7----
2024-06-15 12:54 am-------29.89- 71.4 75.7----
2024-06-15 12:48 am-------29.89- 71.4 75.7----
2024-06-15 12:42 am-------29.89- 71.4 75.7----
2024-06-15 12:36 am-------29.89- 71.4 75.7----
2024-06-15 12:30 am-------29.89- 71.4 75.7----
2024-06-15 12:24 am-------29.88- 71.4 75.7----
2024-06-15 12:18 am-------29.89-- 75.7----
2024-06-15 12:12 am-------29.89-- 75.7----
2024-06-15 12:06 am-------29.88-- 75.7----
2024-06-15 12:00 am-------29.88+0.02 71.2 75.7----
2024-06-14 11:54 pm-------29.87- 71.1 75.7----
2024-06-14 11:48 pm-------29.87-- 75.7----
2024-06-14 11:42 pm-------29.87-- 75.7----
2024-06-14 11:36 pm-------29.88-- 75.7----
2024-06-14 11:30 pm-------29.88-- 75.7----
2024-06-14 11:24 pm-------29.87-- 75.7----
2024-06-14 11:18 pm-------29.87- 70.3 75.7----
2024-06-14 11:12 pm-------29.87- 70.5 75.7----
2024-06-14 11:06 pm-------29.87- 70.7 75.7----
2024-06-14 11:00 pm-------29.87+0.03 70.7 75.7----
2024-06-14 10:54 pm-------29.88- 70.7 75.9----
2024-06-14 10:48 pm-------29.88- 70.9 75.9----
2024-06-14 10:42 pm-------29.88- 70.7 75.9----
2024-06-14 10:36 pm-------29.88- 70.9 75.7----
2024-06-14 10:30 pm-------29.88- 70.9 75.7----
2024-06-14 10:24 pm-------29.88- 71.1 75.9----
2024-06-14 10:18 pm--------- 71.1 75.7----
2024-06-14 10:12 pm--------- 71.2 75.7----
2024-06-14 10:06 pm--------- 71.1 75.7----
2024-06-14 10:00 pm-------29.87+0.01 71.1 75.7----
2024-06-14 09:54 pm-------29.87- 71.2 75.9----
2024-06-14 09:48 pm--------- 71.2 75.7----
2024-06-14 09:42 pm--------- 71.2 75.9----
2024-06-14 09:36 pm--------- 71.2 75.9----
2024-06-14 09:30 pm-------29.87- 71.2-----
2024-06-14 09:24 pm-------29.87- 71.2-----
2024-06-14 09:18 pm-------29.87- 71.4 75.7----
2024-06-14 09:12 pm-------29.86- 71.4 75.7----
2024-06-14 09:06 pm-------29.86- 71.2 75.7----
2024-06-14 09:00 pm-------29.86+0.02 71.2 75.7----
2024-06-14 08:54 pm-------29.85- 71.1 75.7----
2024-06-14 08:48 pm-------29.85-- 75.7----
2024-06-14 08:42 pm-------29.85-- 75.7----
2024-06-14 08:36 pm-------29.84-- 75.7----
2024-06-14 08:30 pm-------29.84- 71.1 75.7----
2024-06-14 08:24 pm-------29.83- 71.1 75.7----
2024-06-14 08:18 pm-------29.83- 70.9 75.7----
2024-06-14 08:12 pm-------29.84- 70.9 75.7----
2024-06-14 08:06 pm-------29.84- 70.7 75.7----
2024-06-14 08:00 pm-------29.84+0.04- 75.7----
2024-06-14 07:54 pm-------29.84-- 75.7----
2024-06-14 07:48 pm-------29.84- 70.3 75.7----
2024-06-14 07:42 pm-------29.85- 70.3 75.7----
2024-06-14 07:36 pm-------29.85- 70.3 75.7----
2024-06-14 07:30 pm-------29.85-- 75.7----
2024-06-14 07:24 pm-------29.85-- 75.7----
2024-06-14 07:00 pm-------29.86+0.07 70.0 75.7----
2024-06-14 06:54 pm-------29.87- 70.2 75.7----
2024-06-14 06:48 pm---------- 75.7----
2024-06-14 06:42 pm---------- 75.7----
2024-06-14 06:36 pm---------- 75.7----
2024-06-14 06:30 pm-------29.86- 71.6 75.7----
2024-06-14 06:24 pm-------29.86- 71.6 75.7----
2024-06-14 06:18 pm-------29.86-- 75.6----
2024-06-14 06:12 pm-------29.86-- 75.6----
2024-06-14 06:06 pm-------29.85-- 75.6----
2024-06-14 06:00 pm-------29.84+0.03 77.4 75.6----
2024-06-14 05:54 pm-------29.82- 79.0 75.6----
2024-06-14 05:48 pm-------29.80- 79.5 75.6----
2024-06-14 05:42 pm-------29.80- 80.8 75.6----
2024-06-14 05:36 pm-------29.79- 81.7 75.6----
2024-06-14 05:30 pm-------29.79- 83.7 75.6----
2024-06-14 05:24 pm-------29.79- 85.8 75.6----
2024-06-14 05:18 pm-------29.79- 87.1 75.6----
2024-06-14 05:12 pm-------29.79- 87.4 75.6----
2024-06-14 05:06 pm-------29.79- 88.2 75.6----
2024-06-14 05:00 pm-------29.80-0.04 88.5 75.6----
2024-06-14 04:54 pm-------29.80- 88.7 75.6----
2024-06-14 04:48 pm-------29.79- 89.1-----
2024-06-14 04:42 pm-------29.79- 89.4-----
2024-06-14 04:36 pm-------29.79- 89.8-----
2024-06-14 04:30 pm-------29.79- 90.3 75.6----
2024-06-14 04:24 pm-------29.79- 90.7 75.6----
2024-06-14 04:18 pm-------29.79- 91.2 75.6----
2024-06-14 04:12 pm-------29.79- 91.4 75.6----
2024-06-14 04:06 pm-------29.79- 91.6 75.6----
2024-06-14 04:00 pm-------29.79-0.06 90.7-----
2024-06-14 03:54 pm-------29.79- 89.8-----
2024-06-14 03:48 pm-------29.80-- 75.6----
2024-06-14 03:42 pm-------29.80-- 75.6----
2024-06-14 03:36 pm-------29.80-- 75.6----
2024-06-14 03:30 pm-------29.80-- 75.6----
2024-06-14 03:24 pm-------29.80-- 75.6----
2024-06-14 03:18 pm-------29.80- 90.5 75.6----
2024-06-14 03:12 pm-------29.80- 90.0 75.6----
2024-06-14 03:06 pm-------29.81- 90.3 75.6----
2024-06-14 03:00 pm-------29.81-0.06- 75.6----
2024-06-14 02:54 pm-------29.81-- 75.6----
2024-06-14 02:48 pm-------29.81- 91.4 75.6----
2024-06-14 02:42 pm-------29.82- 92.5 75.6----
2024-06-14 02:36 pm-------29.82- 93.4 75.4----
2024-06-14 02:30 pm-------29.82- 93.7 75.4----
2024-06-14 02:24 pm-------29.82- 94.3 75.4----
2024-06-14 02:18 pm-------29.82- 93.6 75.4----
2024-06-14 02:12 pm-------29.83- 93.6 75.4----
2024-06-14 02:06 pm-------29.83- 93.2 75.4----
2024-06-14 02:00 pm-------29.83- 92.7 75.4----
2024-06-14 01:54 pm-------29.83- 91.9 75.4----
2024-06-14 01:48 pm-------29.83- 92.1 75.4----
2024-06-14 01:42 pm-------29.83- 92.1 75.4----
2024-06-14 01:36 pm-------29.83- 92.3 75.4----
2024-06-14 01:30 pm-------29.84- 92.5 75.4----
2024-06-14 01:24 pm-------29.84- 91.9 75.2----
2024-06-14 01:18 pm-------29.84- 91.6 75.2----
2024-06-14 01:12 pm-------29.85- 91.0 75.2----
2024-06-14 01:06 pm-------29.85- 91.2 75.2----
2024-06-14 01:00 pm-------29.85-0.04 91.2 75.2----
2024-06-14 12:54 pm-------29.85- 91.0 75.2----
2024-06-14 12:48 pm-------29.85-- 75.2----
2024-06-14 12:42 pm-------29.86-- 75.2----
2024-06-14 12:36 pm-------29.86-- 75.2----
2024-06-14 12:30 pm-------29.86- 90.0 75.2----
2024-06-14 12:24 pm-------29.86- 89.4 75.2----
2024-06-14 12:18 pm-------29.87- 89.6 75.2----
2024-06-14 12:12 pm-------29.87- 89.6 75.2----
2024-06-14 12:06 pm-------29.87- 89.6 75.2----
2024-06-14 12:00 pm-------29.87-0.02 89.1 75.0----
2024-06-14 11:54 am-------29.87- 88.5 75.2----
2024-06-14 11:48 am-------29.87- 88.5 75.0----
2024-06-14 11:42 am-------29.88- 88.3 75.0----
2024-06-14 11:36 am-------29.88- 88.0 75.0----
2024-06-14 11:30 am-------29.88- 87.4-----
2024-06-14 11:24 am-------29.88- 87.6-----
2024-06-14 11:18 am-------29.88- 87.3 75.0----
2024-06-14 11:12 am-------29.88- 87.3 75.0----
2024-06-14 11:06 am-------29.88- 87.3 75.0----
2024-06-14 11:00 am---------- 75.0----
2024-06-14 10:54 am---------- 75.0----
2024-06-14 10:48 am-------29.88- 86.9 75.0----
2024-06-14 10:42 am-------29.88- 86.9 75.0----
2024-06-14 10:36 am-------29.89- 86.7 75.0----
2024-06-14 10:30 am-------29.88-- 75.0----
2024-06-14 10:24 am-------29.88-- 75.0----
2024-06-14 10:18 am-------29.89- 86.5 74.8----
2024-06-14 10:12 am-------29.89- 86.0 74.8----
2024-06-14 10:06 am-------29.89- 85.5 74.8----
2024-06-14 10:00 am-------29.89+0.00 85.1 74.8----
2024-06-14 09:54 am-------29.88- 84.9 74.8----
2024-06-14 09:48 am-------29.88- 85.1 74.8----
2024-06-14 09:42 am-------29.89- 85.1 74.8----
2024-06-14 09:36 am-------29.89- 84.7 74.8----
2024-06-14 09:30 am-------29.89- 84.7 74.8----
2024-06-14 09:24 am-------29.89- 84.2 74.8----
2024-06-14 09:18 am-------29.89- 84.0 74.8----
2024-06-14 09:12 am-------29.89- 84.0 74.8----
2024-06-14 09:06 am-------29.89- 83.7 74.8----
2024-06-14 09:00 am-------29.89+0.00 83.3 74.8----
2024-06-14 08:54 am-------29.89- 83.3 74.8----
2024-06-14 08:48 am-------29.90- 82.9 74.8----
2024-06-14 08:42 am-------29.90- 82.6 74.8----
2024-06-14 08:36 am-------29.89- 82.6 74.8----
2024-06-14 08:30 am-------29.89- 82.0 74.8----
2024-06-14 08:24 am-------29.89- 81.5 74.8----
2024-06-14 08:18 am-------29.89- 81.1 74.8----
2024-06-14 08:12 am-------29.89- 80.6 74.8----
2024-06-14 08:06 am-------29.89- 80.1 74.8----
2024-06-14 08:00 am-------29.89+0.00 79.3 74.8----
2024-06-14 07:54 am-------29.89- 78.8 74.8----
2024-06-14 07:48 am-------29.89- 78.4 74.8----
2024-06-14 07:42 am-------29.89- 78.1 74.8----
2024-06-14 07:36 am-------29.88- 77.7 74.8----
2024-06-14 07:30 am-------29.89- 77.4 74.8----
2024-06-14 07:24 am-------29.88- 77.0 74.8----
2024-06-14 07:18 am-------29.89- 76.5 74.8----
2024-06-14 07:12 am-------29.88- 76.3 74.8----
2024-06-14 07:06 am-------29.88- 76.3 74.8----
2024-06-14 07:00 am-------29.88-0.01 76.1 74.8----
2024-06-14 06:54 am-------29.88- 75.4 74.8----
2024-06-14 06:48 am-------29.88- 74.8 74.8----
2024-06-14 06:42 am-------29.88- 74.5 74.8----
2024-06-14 06:36 am-------29.88- 73.9 74.8----
2024-06-14 06:30 am-------29.88- 73.8 74.8----
2024-06-14 06:24 am-------29.88- 73.4 74.8----
2024-06-14 06:18 am-------29.88- 73.0 74.8----
2024-06-14 06:12 am-------29.88- 72.9 74.8----
2024-06-14 06:06 am-------29.88- 72.7 74.8----
2024-06-14 06:00 am-------29.88-0.02- 74.8----
2024-06-14 05:54 am-------29.88-- 74.8----
2024-06-14 05:48 am-------29.88- 72.3 74.8----
2024-06-14 05:42 am-------29.88- 72.3 74.8----
2024-06-14 05:36 am-------29.88- 72.3 74.8----
2024-06-14 05:30 am-------29.88- 72.3 74.8----
2024-06-14 05:24 am-------29.88- 72.3 74.8----
2024-06-14 05:18 am-------29.88- 72.3 74.8----
2024-06-14 05:12 am-------29.88- 72.5 74.8----
2024-06-14 05:06 am-------29.88- 72.3 74.8----
2024-06-14 05:00 am-------29.88-0.03 72.3 74.8----
2024-06-14 04:54 am-------29.89- 72.3 75.0----
2024-06-14 04:48 am-------29.89- 72.3 75.0----
2024-06-14 04:42 am-------29.89- 72.3 75.0----
2024-06-14 04:36 am-------29.89- 72.1 75.0----
2024-06-14 04:30 am-------29.88- 72.1 75.0----
2024-06-14 04:24 am-------29.89- 72.1 75.0----
2024-06-14 04:18 am-------29.89- 72.1 75.0----
2024-06-14 04:12 am-------29.89- 72.1 75.0----
2024-06-14 04:06 am-------29.89- 72.1 75.0----
2024-06-14 04:00 am-------29.89-0.04 72.0 75.2----
2024-06-14 03:54 am-------29.89- 72.0 75.2----
2024-06-14 03:48 am-------29.89- 72.0 75.2----
2024-06-14 03:42 am-------29.89- 71.8 75.2----
2024-06-14 03:36 am-------29.89- 72.0 75.2----
2024-06-14 03:30 am-------29.89- 72.0 75.2----
2024-06-14 03:24 am-------29.89- 72.0 75.2----
2024-06-14 03:18 am-------29.90- 72.0 75.2----
2024-06-14 03:12 am-------29.90- 72.0 75.2----
2024-06-14 03:06 am-------29.90- 72.0 75.2----
2024-06-14 03:00 am-------29.90-0.04 72.0 75.2----
2024-06-14 02:54 am-------29.90- 72.0 75.2----